TimeMST,TemperatureF,Dew PointF,Humidity,Sea Level PressureIn,VisibilityMPH,Wind Direction,Wind SpeedMPH,Gust SpeedMPH,PrecipitationIn,Events,Conditions,WindDirDegrees,DateUTC
12:53 AM,28.0,14.0,56,30.05,10.0,WNW,8.1,-,N/A,,Partly Cloudy,290,2013-12-07 07:53:00
1:53 AM,28.9,14.0,54,30.03,10.0,WNW,5.8,-,N/A,,Overcast,300,2013-12-07 08:53:00
2:53 AM,28.9,14.0,54,30.02,10.0,North,3.5,-,N/A,,Overcast,350,2013-12-07 09:53:00
3:53 AM,28.0,14.0,56,30.01,10.0,WNW,4.6,-,N/A,,Mostly Cloudy,300,2013-12-07 10:53:00
4:53 AM,25.0,14.0,63,30.02,10.0,NW,6.9,-,N/A,,Clear,310,2013-12-07 11:53:00
5:53 AM,25.0,14.0,63,30.05,10.0,West,4.6,-,N/A,,Clear,280,2013-12-07 12:53:00
6:24 AM,24.8,14.0,64,30.06,10.0,Calm,Calm,-,N/A,,Mostly Cloudy,0,2013-12-07 13:24:00
6:40 AM,26.6,14.0,59,30.06,10.0,Calm,Calm,-,N/A,,Scattered Clouds,0,2013-12-07 13:40:00
6:53 AM,27.0,14.0,58,30.06,10.0,Calm,Calm,-,N/A,,Scattered Clouds,0,2013-12-07 13:53:00
7:01 AM,26.6,15.8,64,30.06,10.0,Calm,Calm,-,N/A,,Mostly Cloudy,0,2013-12-07 14:01:00
7:41 AM,30.2,19.4,64,30.06,10.0,SW,3.5,-,N/A,,Overcast,220,2013-12-07 14:41:00
7:53 AM,30.0,19.0,64,30.06,10.0,WSW,3.5,-,N/A,,Overcast,240,2013-12-07 14:53:00
8:28 AM,30.2,23.0,75,30.06,10.0,SSW,5.8,-,N/A,,Overcast,200,2013-12-07 15:28:00
8:53 AM,30.9,26.1,82,30.06,10.0,SSW,3.5,-,N/A,,Overcast,200,2013-12-07 15:53:00
9:48 AM,33.8,28.4,81,30.06,10.0,South,10.4,-,N/A,,Overcast,190,2013-12-07 16:48:00
9:53 AM,33.1,28.9,85,30.05,9.0,SSW,8.1,-,N/A,,Overcast,200,2013-12-07 16:53:00
10:53 AM,34.0,30.0,85,30.03,10.0,South,12.7,-,N/A,,Overcast,190,2013-12-07 17:53:00
11:53 AM,35.1,30.9,85,30.00,10.0,SSW,17.3,21.9,N/A,,Overcast,200,2013-12-07 18:53:00
12:12 PM,35.6,30.2,81,29.98,10.0,SSW,12.7,-,N/A,,Overcast,210,2013-12-07 19:12:00
12:53 PM,36.0,30.9,82,29.95,10.0,SSW,12.7,-,N/A,,Overcast,200,2013-12-07 19:53:00
1:24 PM,37.4,30.2,75,29.94,10.0,South,13.8,-,N/A,,Overcast,190,2013-12-07 20:24:00
1:53 PM,37.9,32.0,79,29.91,10.0,SSW,15.0,20.7,N/A,,Overcast,200,2013-12-07 20:53:00
2:53 PM,39.0,32.0,76,29.89,10.0,SSW,10.4,-,N/A,,Mostly Cloudy,200,2013-12-07 21:53:00
3:08 PM,39.2,30.2,70,29.89,10.0,SSW,18.4,24.2,N/A,,Partly Cloudy,200,2013-12-07 22:08:00
3:53 PM,41.0,30.9,67,29.87,10.0,SSW,10.4,-,N/A,,Clear,210,2013-12-07 22:53:00
4:53 PM,37.9,30.0,73,29.88,10.0,ESE,5.8,-,N/A,,Partly Cloudy,120,2013-12-07 23:53:00
5:53 PM,39.0,30.0,70,29.88,10.0,WSW,6.9,-,N/A,,Clear,240,2013-12-08 00:53:00
6:53 PM,37.9,30.0,73,29.87,10.0,SSW,8.1,-,N/A,,Clear,200,2013-12-08 01:53:00
7:53 PM,39.0,30.9,73,29.86,10.0,SSW,16.1,26.5,N/A,,Clear,200,2013-12-08 02:53:00
8:53 PM,37.9,30.9,76,29.87,10.0,SSW,13.8,23.0,N/A,,Clear,200,2013-12-08 03:53:00
9:53 PM,37.0,30.9,79,29.85,10.0,South,16.1,-,N/A,,Clear,190,2013-12-08 04:53:00
10:53 PM,37.0,30.0,76,29.86,10.0,SSW,13.8,21.9,N/A,,Clear,210,2013-12-08 05:53:00
11:53 PM,33.1,28.9,85,29.87,10.0,South,5.8,-,N/A,,Clear,190,2013-12-08 06:53:00